TIME,DELAY(SENSOR),PRES,T(CTD),SAL,OXYGEN,RAWTEMP,T(OPTODE),TCPHASE,FLUOR,BETA(BETA700),BETA(BETA412),BETA(BETA440),CDOM,C(CSC),ED(ED412.40),ED(ED444.00),ED(ED489.70),ED(ED554.30),LU(LU411.80),LU(LU443.40),LU(LU489.60),LU(LU554.10),COMP,TILTX,TILTX(TILTY),CHECK
1342906273,5810,497.9400024414062500,6.6845998764038090,34.2225990295410160,54.1613082885742200,597.3988037109375000,6.6682620048522950,52.1850318908691400,52,106,94,80,80,15372,2147749650,2147420800,2148003620,2147875629,2147630656,2147076333,2148237238,2147201490,1281,4,13,40783
1342906427,5808,486.9899902343750000,6.8826999664306640,34.2052993774414060,60.3078002929687500,591.3234863281250000,6.8641929626464840,51.2594604492187500,52,106,90,81,81,15372,2147750116,2147420653,2148004141,2147875757,2147629513,2147072667,2148239579,2147206070,3543,4,13,44402
1342906572,5810,474.5700073242187500,7.0808000564575195,34.1971015930175800,67.1771469116211000,584.9979248046875000,7.0678310394287110,50.2698097229003900,52,105,88,79,81,15369,2147747136,2147420214,2148006070,2147876077,2147628379,2147074834,2148240585,2147205010,706,4,13,64691
1342906682,5805,463.5100097656250000,7.2555999755859375,34.1902008056640600,73.6893310546875000,579.7299804687500000,7.2371392250061035,49.3788681030273440,52,106,86,82,80,15369,2147746102,2147420827,2148003885,2147876461,2147630089,2147079332,2148236242,2147200813,1194,4,13,10137
1342906781,5809,453.1900024414062500,7.2962999343872070,34.1888999938964840,75.3860168457031200,577.9603271484375000,7.2939591407775880,49.1463584899902340,52,108,87,80,80,15371,2147748114,2147421504,2147999753,2147874496,2147627721,2147084406,2148234779,2147202477,1314,4,13,34868
1342906893,5807,441.2200012207031000,7.5218000411987305,34.1822013854980500,80.0621795654296900,570.5150756835938000,7.5327010154724120,48.4726295471191400,51,106,93,81,78,15371,2147747510,2147422418,2148004507,2147874944,2147626313,2147076470,2148236416,2147205412,1764,4,14,11685
1342907003,5805,429.6700134277344000,7.7876000404357910,34.1716003417968750,89.5164794921875000,563.3748168945312000,7.7612090110778810,47.2673492431640600,52,107,90,79,78,15369,2147745609,2147421906,2147999981,2147874962,2147626102,2147078537,2148237430,2147203867,2323,4,13,51944
1342907102,5806,419.1499938964844000,7.9558000564575195,34.1669006347656250,97.2529678344726600,556.8814086914062000,7.9686341285705570,46.3104400634765600,51,107,87,80,78,15365,2147747227,2147419318,2148000603,2147875172,2147623780,2147082706,2148233161,2147205074,3291,4,13,10493
1342907219,5811,408.3099975585937500,8.2884998321533200,34.1582984924316400,108.2470016479492200,547.7343139648438000,8.2602291107177730,45.0082893371582000,51,109,88,80,77,15366,2147742838,2147421897,2148001700,2147872822,2147624192,2147084169,2148234212,2147202907,2981,4,13,22642
1342907362,5810,397.5700073242187500,8.4686002731323240,34.1535987854003900,116.9944992065429700,541.8248901367188000,8.4482460021972660,44.0380706787109400,51,107,90,80,77,15369,2147745024,2147419373,2148001490,2147873846,2147620297,2147091181,2148228544,2147205750,3545,4,13,35395
1342907526,5807,384.6700134277344000,8.6543998718261720,34.1464996337890600,128.5924072265625000,535.7706298828125000,8.6405792236328120,42.8407707214355500,51,107,88,80,76,15366,2147740132,2147419373,2148001298,2147871926,2147620955,2147092470,2148232009,2147206710,635,5,13,61264
1342907647,5808,374.1499938964844000,8.8829002380371100,34.1174011230468750,149.9992980957031200,528.1906127929688000,8.8809814453125000,40.8633003234863300,50,103,91,81,75,15375,2147739364,2147421321,2148001197,2147875392,2147620470,2147089170,2148229650,2147202514,3369,4,14,42753
1342907781,5808,364.0499877929687500,9.2573003768920900,34.1239013671875000,163.4889068603515600,516.5562744140625000,9.2491016387939450,39.6050605773925800,50,105,91,79,74,15373,2147740306,2147421632,2148002825,2147874596,2147615899,2147097920,2148227181,2147206674,78,4,13,40442
1342907957,5808,353.4400024414062500,9.7138004302978520,34.1268005371093750,182.2368927001953000,502.1112976074219000,9.7047748565673830,38.0123405456543000,50,105,86,80,73,15374,2147743469,2147423469,2148002203,2147873014,2147616768,2147096694,2148226002,2147207049,1903,4,13,52766
1342908146,5806,341.9200134277344000,10.0008001327514650,34.1376991271972660,195.9454040527343800,492.7106018066406000,10.0005302429199220,36.9540901184082000,49,106,88,80,73,15370,2147738614,2147421668,2148005019,2147877723,2147615442,2147095771,2148224082,2147206043,985,3,13,57102
1342908278,5808,330.2699890136719000,10.3768997192382810,34.1492996215820300,202.4624023437500000,480.9270935058594000,10.3704204559326170,36.3521995544433600,49,105,91,81,72,15375,2147736036,2147425691,2148009901,2147873654,2147611986,2147099328,2148227620,2147210084,748,5,14,30710
1342908401,5808,318.6400146484375000,10.9554004669189450,34.1726989746093750,210.9430999755859400,462.3400878906250000,10.9520397186279300,35.5411109924316400,49,105,92,80,71,15375,2147736758,2147424658,2148009892,2147875053,2147610285,2147103524,2148224374,2147206966,224,4,13,63711
1342908511,5810,307.6900024414062500,11.2807998657226560,34.1899986267089840,216.0991973876953000,451.6676025390625000,11.2850704193115230,35.0723381042480500,47,106,91,80,70,15369,2147731812,2147424978,2148012790,2147872155,2147605851,2147112310,2148217334,2147208786,1105,4,13,22527
1342908621,5810,296.6300048828125000,11.4173002243042000,34.1983985900878900,217.8054962158203000,447.8067016601562500,11.4053802490234380,34.9144706726074200,49,105,89,81,70,15375,2147732187,2147426752,2148019090,2147874514,2147607067,2147110921,2148221449,2147210230,2205,4,14,28212
1342908733,5806,286.3500061035156000,11.9731998443603520,34.2164993286132800,214.2877960205078000,428.1075134277344000,12.0179700851440430,34.7977905273437500,49,107,86,81,71,15371,2147729362,2147427812,2148027318,2147871945,2147602953,2147113517,2148227510,2147212717,2483,4,13,57806
1342908876,5807,276.0299987792969000,12.6283998489379880,34.2648010253906250,211.5429992675781200,407.3839111328125000,12.6602802276611330,34.6275100708007800,49,105,90,81,71,15368,2147731355,2147430902,2148040850,2147874477,2147600667,2147121536,2148227520,2147212745,2268,4,14,64739
1342909041,5810,264.7900085449219000,13.2624998092651370,34.2952995300293000,207.1437988281250000,388.2361145019531000,13.2519998550415040,34.5838890075683600,49,107,93,81,69,15370,2147725732,2147436452,2148055734,2147878720,2147598592,2147131099,2148235894,2147212416,209,4,14,50609
1342909175,5811,253.4799957275390600,13.9806003570556640,34.3483009338378900,205.7996978759765600,364.6659851074219000,13.9783401489257810,34.3011283874511700,49,106,92,81,69,15366,2147726034,2147446573,2148078564,2147875236,2147595995,2147137581,2148237385,2147212946,1660,4,14,33745
1342909296,5809,242.4799957275390600,14.6374998092651370,34.4105987548828100,204.0075988769531200,340.4114074707031000,14.7237596511840820,34.0399894714355500,49,109,91,81,68,15362,2147724754,2147454820,2148117714,2147874386,2147589504,2147154825,2148254546,2147213211,2184,3,14,63903
1342909419,5809,231.1699981689453000,15.3962001800537110,34.4911003112793000,206.6609954833984400,318.9144897460937500,15.3830204010009770,33.5655517578125000,49,107,88,82,68,15360,2147725869,2147473609,2148171721,2147875126,2147590171,2147168073,2148277540,2147220379,2383,4,14,46160
1342909540,5807,220.3600006103515600,15.8533000946044920,34.5397987365722660,207.1333007812500000,304.0367126464844000,15.8386402130126950,33.3202400207519500,50,107,91,81,66,15356,2147729243,2147505508,2148250788,2147875099,2147586816,2147189686,2148310646,2147220013,617,3,14,60323
1342909674,5807,209.7400054931640600,16.6289997100830080,34.6108016967773440,205.3665008544922000,278.7604064941406000,16.6117897033691400,33.0556793212890600,60,115,93,80,67,15342,2147736877,2147554112,2148358308,2147873929,2147586240,2147221677,2148355931,2147225161,889,4,14,7783
1342909828,5807,198.5200042724609400,16.9993991851806640,34.6123008728027340,199.0675048828125000,266.3023986816406000,16.9925308227539060,33.2454986572265600,88,115,90,83,67,15312,2147756361,2147642258,2148551268,2147876041,2147590884,2147251510,2148424630,2147229156,2063,3,14,19778
1342909883,5807,195.0099945068359400,17.2975006103515620,34.6365013122558600,196.3184967041015600,256.1344909667969000,17.3031692504882800,33.2644691467285160,91,119,91,82,66,15305,2147764525,2147684388,2148635821,2147875209,2147594660,2147267602,2148452617,2147234523,1263,3,15,50670
1342909949,5807,191.3899993896484400,18.2759990692138670,34.7649993896484400,196.8632965087890600,225.1157989501953000,18.2504901885986330,32.7908897399902340,85,125,91,83,65,15307,2147781769,2147729060,2148732480,2147877805,2147594907,2147286701,2148485293,2147233856,568,3,14,64982
1342910046,5806,188.1999969482422000,18.4792995452880860,34.8185005187988300,203.2772979736328000,218.0619964599609400,18.4659099578857420,32.3163604736328100,77,116,92,82,65,15322,2147793188,2147778816,2148816557,2147875593,2147598692,2147317385,2148518409,2147242002,2974,3,15,18056
1342910200,5807,183.9900054931640600,18.7106990814209000,34.8441009521484400,206.8173980712890600,210.9393005371093800,18.6834392547607420,32.0165786743164060,58,109,89,82,65,15342,2147813147,2147836909,2148918418,2147873737,2147603501,2147364973,2148572251,2147240987,2459,3,15,35168
1342910331,5808,179.2500000000000000,18.9920005798339840,34.8785018920898440,207.2032928466797000,202.4467926025390600,18.9428405761718750,31.8775997161865230,62,110,89,82,66,15339,2147850139,2147917924,2149077202,2147877421,2147619794,2147416137,2148653641,2147249938,3388,3,15,7239
1342910408,5806,175.1399993896484400,19.2938995361328120,34.9188995361328100,207.5715026855468800,191.2120971679687500,19.2860698699951170,31.7029304504394530,69,114,92,80,66,15332,2147887259,2148002276,2149233682,2147877897,2147634733,2147464100,2148727643,2147254537,889,2,15,12663
1342910485,5808,171.4700012207031200,19.5550994873046880,34.9421005249023440,208.7682037353515600,182.1421051025390600,19.5632705688476560,31.5130691528320300,73,114,90,82,64,15328,2147927789,2148092224,2149390912,2147878153,2147646683,2147518226,2148803675,2147258505,1309,3,15,24852
1342910573,5809,167.6499938964843800,19.6907997131347660,34.9636001586914060,210.3901062011718800,178.2642059326172000,19.6818103790283200,31.3715991973876950,70,117,91,82,65,15323,2147989622,2148218441,2149601078,2147882413,2147670848,2147587190,2148898066,2147269769,1360,3,15,132
1342910663,5807,164.0200042724609400,19.8805999755859380,34.9858016967773440,211.0240020751953000,171.8164062500000000,19.8789596557617200,31.2495994567871100,75,114,91,83,63,15320,2148062162,2148353316,2149826733,2147883318,2147699382,2147657819,2148998884,2147277110,2141,3,15,9245
1342910784,5808,159.9100036621093800,20.2248001098632800,35.0228004455566400,212.0072937011718800,161.0099029541015600,20.2095203399658200,31.0512599945068360,84,118,90,82,64,15316,2148162422,2148533659,2150121645,2147885604,2147742948,2147754962,2149135332,2147286363,1429,3,15,40245
1342910904,5807,155.9100036621093800,20.4909992218017580,35.0516014099121100,213.1871032714843800,152.5393981933593800,20.4687690734863280,30.8747692108154300,88,122,91,82,65,15302,2148285970,2148753965,2150484772,2147890651,2147787629,2147865664,2149286784,2147294436,542,3,15,15292
1342911004,5804,151.4100036621093800,20.8952999114990230,35.1022987365722660,213.5747070312500000,141.4488067626953000,20.8084201812744140,30.7064094543457030,97,125,92,83,63,15286,2148460105,2149045531,2150948608,2147893220,2147854528,2148007817,2149483565,2147311926,978,3,15,13402
1342911081,5812,147.4100036621093800,21.0737991333007800,35.1194992065429700,214.3970031738281200,133.3769073486328000,21.0557994842529300,30.5558395385742200,106,126,92,83,64,15282,2148665581,2149383643,2151490432,2147898971,2147927442,2148153874,2149690843,2147330002,2054,2,15,23359
1342911158,5810,143.8999938964843800,21.1228008270263670,35.1251983642578100,215.7597961425781200,131.5229034423828000,21.1126403808593750,30.4599609375000000,109,126,95,83,63,15275,2148872960,2149703040,2151974765,2147905673,2148005787,2148291565,2149873298,2147345636,2787,3,16,11611
1342911257,5809,140.2700042724609400,21.5168991088867200,35.1654014587402340,217.7089996337890600,119.2510986328125000,21.4891109466552730,30.1977500915527340,122,132,94,82,62,15261,2149190729,2150171492,2152659721,2147918144,2148117430,2148476882,2150113673,2147363200,2765,2,15,64019
1342911446,5809,136.2299957275390600,21.5914993286132800,35.1775016784668000,222.4803924560547000,116.0907974243164000,21.5861301422119140,29.9142494201660160,121,128,92,83,63,15256,2149828781,2151036937,2153823533,2147924132,2148349650,2148825353,2150521837,2147401435,1651,3,16,16829
1342911578,5808,131.8999938964843800,21.8171005249023440,35.1921005249023440,223.4501037597656200,109.3199996948242200,21.7940807342529300,29.7777309417724600,131,131,91,84,62,15235,2150707437,2152198802,2155327963,2147953709,2148679460,2149305764,2151099904,2147452077,1554,2,15,11769
1342911678,5810,127.5100021362304700,21.9592990875244140,35.2056007385253900,225.1632995605468800,104.2369995117187500,21.9502792358398440,29.6272697448730470,139,128,92,84,63,15229,2151933686,2153802386,2157372544,2147982665,2149132754,2149940452,2151846720,2147523565,213,3,15,315
1342911755,5808,123.5299987792968800,22.0858993530273440,35.2149009704589840,226.1658020019531200,98.6194000244140600,22.1230201721191400,29.5056190490722660,145,127,95,83,61,15213,2153301577,2155471515,2159337398,2148015460,2149629549,2150602176,2152566153,2147593033,1093,2,16,2295
1342911843,5809,120.1200027465820300,22.3838996887207030,35.2374000549316400,228.5310058593750000,91.4612579345703100,22.3432807922363280,29.2988700866699220,150,133,92,85,61,15202,2154808274,2157296813,2161406838,2148054326,2150173229,2151266614,2153270299,2147663899,1609,2,16,3856
1342911977,5806,115.9700012207031200,22.6198005676269530,35.2746009826660160,234.2053985595703000,83.0471267700195300,22.6024208068847660,28.9222393035888670,154,127,93,86,62,15188,2157456795,2160483693,2164930258,2148118491,2151206445,2152505554,2154555190,2147792118,2770,2,15,19976
1342912098,5810,111.9599990844726600,22.7712001800537100,35.3000984191894500,242.6356964111328000,77.4103317260742200,22.7761707305908200,28.4657402038574220,146,129,92,84,59,15185,2160317504,2163962770,2168722560,2148196361,2152595794,2154135094,2156167853,2147944182,1427,2,16,8591
1342912207,5806,107.7900009155273400,22.9157009124755860,35.2887992858886700,246.9631042480468800,73.1500091552734400,22.9075698852539060,28.2208995819091800,138,126,92,86,59,15183,2163283355,2167495204,2172427053,2148295725,2154205220,2155958189,2157907492,2148114788,906,2,15,27067
1342912307,5811,103.7099990844726600,23.1830005645751950,35.2798004150390600,247.0977935791015600,65.2931137084961000,23.1501007080078120,28.1173191070556640,118,129,94,87,60,15206,2166231890,2170845449,2175530614,2148413440,2155916470,2157806646,2159536128,2148277257,3467,2,15,18556
1342912406,5808,100.0000000000000000,23.2068004608154300,35.2809982299804700,247.7086029052734400,63.5844192504882800,23.2028808593750000,28.0693397521972660,99,126,93,85,59,15215,2173329984,2179317385,2184598418,2148667209,2159722880,2162366656,2163890816,2148681837,971,2,16,39053
1342912461,5810,98.3600006103515600,23.3535995483398440,35.2789001464843750,247.3343048095703000,59.7196502685546900,23.3222999572753900,28.0376491546630860,96,129,94,86,58,15210,2175587245,2181663753,2186529728,2148730267,2161198445,2163956662,2165210112,2148803913,1414,2,16,15088
1342912516,5807,97.2099990844726600,23.4437007904052730,35.2840995788574200,247.9416961669922000,57.0190200805664060,23.4057903289794920,27.9778709411621100,84,129,94,85,57,15212,2176612662,2182536301,2186862427,2148758363,2162109769,2164874578,2165804068,2148859209,1792,2,16,20912
1342912616,5817,94.8399963378906200,23.6308994293212900,35.2877006530761700,249.1696014404297000,50.0879707336425800,23.6201992034912100,27.8390998840332030,80,132,94,88,57,15208,2181087305,2187224832,2190765330,2148936704,2165394304,2168364260,2168489133,2149098258,2708,2,16,12472
1342912671,5804,92.7699966430664000,23.8188991546630860,35.2728996276855500,248.6508026123047000,44.1232795715332000,23.8048992156982420,27.7876701354980470,78,133,95,88,57,15204,2184379766,2190532672,2193690724,2149078134,2167913856,2171013156,2170566665,2149290349,2498,2,15,39827
1342912726,5806,90.6800003051757800,23.8841991424560550,35.2681999206543000,248.2774047851562500,41.6227989196777340,23.8823890686035160,27.7729606628417970,77,133,96,86,59,15198,2185046930,2190754541,2193326637,2149170496,2168921389,2171860132,2170893632,2149331501,2168,2,16,22169
1342912781,5809,88.3799972534179700,23.9386005401611330,35.2644004821777340,248.2720031738281200,40.0037002563476560,23.9325695037841800,27.7533092498779300,76,132,95,87,57,15195,2191938230,2198205174,2200715748,2149494555,2173476425,2176926473,2175199195,2149727990,1499,2,16,55057
1342912836,5804,85.9100036621093800,24.0333995819091800,35.2577018737793000,247.8563995361328000,37.0487403869628900,24.0241909027099600,27.7347908020019530,75,133,94,87,58,15194,2195855853,2202274304,2204632356,2149803757,2176416603,2179961810,2177616292,2149981257,1169,2,16,5916
1342912914,5805,82.2399978637695300,24.1364994049072270,35.2487983703613300,247.8238067626953000,33.6547698974609400,24.1294803619384770,27.6944007873535160,75,133,95,87,59,15186,2201876041,2208363840,2210058889,2150234102,2181511533,2185093942,2181501037,2150365376,3279,2,16,52305
1342912969,5812,79.6500015258789000,24.1989994049072270,35.2431983947753900,247.4665069580078000,31.6022491455078120,24.1931896209716800,27.6845207214355470,74,133,95,86,57,15174,2207892086,2214613074,2215930294,2150757248,2186265974,2189861540,2185098112,2150748388,3136,2,16,9549
1342913024,5806,77.5699996948242200,24.3661003112792970,35.2224006652832000,246.5081939697265600,25.8532390594482420,24.3717308044433600,27.6554603576660160,72,132,94,86,59,15168,2212785481,2219189668,2219697545,2151170221,2190819520,2194205184,2188146825,2151083894,2908,2,16,2713
1342913079,5809,76.2200012207031200,24.6042003631591800,35.1931991577148440,245.5653991699218800,19.9557209014892580,24.5550594329834000,27.6237792968750000,71,134,93,86,57,15167,2216017426,2222489462,2222620800,2151347785,2193731254,2197056786,2190124068,2151252781,3328,3,16,12956
1342913300,5805,74.4199981689453100,24.9202003479003900,35.1587982177734400,242.5977935791015600,8.4899606704711910,24.9120292663574220,27.6126804351806640,66,135,95,87,58,15175,2222018678,2227622720,2226354560,2151773275,2201971062,2204624795,2194889499,2151686610,761,2,16,40276
1342913388,5806,72.0899963378906200,25.0191001892089840,35.1464996337890600,241.8273925781250000,5.3558168411254880,25.0097408294677730,27.6082592010498050,63,132,95,88,57,15168,2228726098,2234289828,2232578505,2152503835,2208736356,2210980022,2199258203,2152197330,725,2,16,50424
1342913454,5805,70.0599975585937500,25.0333003997802730,35.1461982727050800,241.6497039794922000,4.5509400367736820,25.0348396301269530,27.6062202453613280,65,129,96,84,57,15144,2234932800,2240929014,2239081380,2153271058,2214649673,2216549019,2203162980,2152646729,1241,2,17,6690
1342913532,5807,66.9700012207031200,25.0911006927490230,35.1385993957519500,240.9640960693359400,2.3277909755706787,25.1041908264160160,27.6091499328613280,62,131,95,88,55,15179,2244880676,2250786459,2248267529,2154521545,2225722706,2227041380,2210539776,2153483163,712,2,16,533
1342913587,5805,64.1399993896484400,25.2199993133544920,35.1263008117675800,240.3657989501953000,-0.8723437786102295,25.2040691375732420,27.5963401794433600,61,130,94,86,58,15184,2252035913,2257858688,2254852745,2155894509,2235395245,2235614674,2216221833,2154201142,221,2,16,52636
1342913642,5802,61.6699981689453100,25.2514991760253900,35.1254005432128900,240.1329956054687500,-2.2297379970550537,25.2464599609375000,27.5901508331298830,59,126,92,86,57,15190,2260613312,2266146194,2263004937,2157407268,2245690368,2245139693,2222680201,2155032082,751,2,16,25723
1342913697,5806,59.5000000000000000,25.2826995849609380,35.1244010925293000,239.8157958984375000,-3.4476759433746340,25.2844905853271500,27.5892505645751950,59,128,92,86,53,15189,2268093778,2273482934,2269609883,2158700196,2256376438,2254838226,2229034221,2155760356,848,2,16,33148
1342913752,5806,57.5900001525878900,25.3250999450683600,35.1245002746582000,239.6976013183593800,-4.7722220420837400,25.3258705139160160,27.5781593322753900,58,127,93,87,56,15191,2276698578,2282780160,2278989860,2160262866,2265279506,2262579218,2234045705,2156525805,176,2,16,18305
1342913807,5807,55.7500000000000000,25.3673000335693360,35.1236991882324200,239.3654937744140600,-6.1662020683288570,25.3694305419921880,27.5759391784667970,58,128,93,87,59,15190,2282620361,2288725988,2284552758,2162113188,2276044818,2271923776,2240034770,2157294500,3193,2,16,25540
1342913864,5809,53.9700012207031250,25.4246997833251950,35.1193008422851560,239.0458984375000000,-7.9800281524658200,25.4261302947998050,27.5678291320800780,57,125,94,86,59,15187,2289844644,2296194971,2291619035,2163498340,2286966893,2281512192,2245991478,2158043190,2881,2,16,22228
1342913930,5805,51.8300018310546900,25.4675998687744140,35.1160011291503900,238.7084960937500000,-9.3607301712036130,25.4692993164062500,27.5659599304199220,58,126,92,85,57,15188,2297134875,2304074944,2299782793,2166138294,2297842294,2290649846,2251694089,2158960237,2930,2,17,20847
1342913985,5810,49.9399986267089840,25.5252990722656250,35.1074981689453100,238.3110046386718800,-10.8238496780395500,25.5150604248046880,27.5656604766845700,57,125,94,87,62,15191,2306383579,2313242925,2308989988,2168997577,2310390674,2301836598,2259174262,2160124800,3448,2,16,57685
1342914040,5807,48.2299995422363300,25.6110992431640620,35.1012001037597660,237.8842010498047000,-13.7326803207397460,25.6060695648193360,27.5491504669189450,56,125,95,82,56,15185,2312316763,2318988589,2314879314,2171523108,2319170468,2309471396,2264248420,2161022710,284,2,16,10008
1342914117,5809,46.0400009155273440,25.5835990905761720,35.1018981933593750,237.6036071777343800,-13.6366901397705080,25.6030693054199220,27.5628604888916000,56,125,92,85,56,15188,2323180132,2330652745,2326473408,2175045385,2333608576,2321942162,2272563712,2162435062,3317,2,16,37823
1342914194,5808,42.9399986267089840,25.6287994384765620,35.1010017395019500,237.4125976562500000,-14.7617902755737300,25.6382904052734380,27.5577201843261720,54,121,95,86,55,15196,2332506715,2339169252,2334854125,2180483702,2356766601,2342245641,2286153014,2164989668,110,2,16,8026
1342914249,5804,40.0400009155273440,25.6308994293212900,35.1007995605468750,237.4801940917968800,-14.8385000228881840,25.6406898498535160,27.5537490844726560,54,120,93,84,59,15198,2343916608,2350356544,2345968640,2186395547,2376497289,2358678171,2296312265,2166981348,175,2,16,24354
1342914304,5809,36.9799995422363300,25.6320991516113280,35.1016006469726560,237.4781036376953000,-15.0175895690917970,25.6462993621826170,27.5516395568847660,54,122,91,86,55,15198,2370075684,2379532900,2377518189,2198807990,2401962422,2380623268,2310643556,2170209472,141,3,16,29085
1342914359,5808,33.9199981689453100,25.6355991363525400,35.1007995605468750,237.5372009277343800,-15.0828895568847660,25.6483402252197270,27.5482006072998050,53,122,96,85,53,15191,2379653248,2389442916,2388158381,2209634560,2427342500,2402435968,2324794788,2173539529,4,2,15,55736
1342914414,5808,30.8700008392334000,25.6401996612548830,35.1016006469726560,237.6685943603515600,-15.2484102249145500,25.6535205841064450,27.5402698516845700,53,121,95,84,55,15198,2400729490,2412096630,2412317915,2223601764,2455099254,2426412242,2340841316,2178098258,54,3,16,60709